Time,TemperatureF,DewpointF,PressureIn,WindDirection,WindDirectionDegrees,WindSpeedMPH,WindSpeedGustMPH,Humidity,HourlyPrecipIn,Conditions,Clouds,dailyrainin,SolarRadiationWatts/m^2,SoftwareType,DateUTC
2013-05-16 00:01:00,52.3,47.9,29.65,West,278,0.0,0.0,85,0.00,,,0.00,0,WeatherCatV1.02B3,2013-05-16 07:01:00,
2013-05-16 00:06:00,52.1,48.3,29.65,West,278,0.0,0.0,87,0.00,,,0.00,0,WeatherCatV1.02B3,2013-05-16 07:06:00,
2013-05-16 00:11:00,52.3,48.2,29.65,West,278,0.0,0.0,86,0.00,,,0.00,0,WeatherCatV1.02B3,2013-05-16 07:11:00,
2013-05-16 00:16:00,52.1,48.0,29.65,West,278,0.0,0.0,86,0.00,,,0.00,0,WeatherCatV1.02B3,2013-05-16 07:16:00,
2013-05-16 00:21:00,52.1,47.7,29.65,West,278,0.0,1.0,85,0.00,,,0.00,0,WeatherCatV1.02B3,2013-05-16 07:21:00,
2013-05-16 00:26:00,51.4,47.0,29.65,West,278,0.0,1.0,85,0.00,,,0.00,0,WeatherCatV1.02B3,2013-05-16 07:26:00,
2013-05-16 00:31:00,51.3,47.6,29.65,West,278,0.0,0.0,87,0.00,,,0.00,0,WeatherCatV1.02B3,2013-05-16 07:31:00,
2013-05-16 00:36:00,51.2,47.5,29.65,West,278,0.0,0.0,87,0.00,,,0.00,0,WeatherCatV1.02B3,2013-05-16 07:36:00,
2013-05-16 00:41:00,51.2,47.5,29.65,West,278,0.0,0.0,87,0.00,,,0.00,0,WeatherCatV1.02B3,2013-05-16 07:41:00,
2013-05-16 00:46:00,50.8,47.4,29.65,West,278,0.0,0.0,88,0.00,,,0.00,0,WeatherCatV1.02B3,2013-05-16 07:46:00,
2013-05-16 00:51:00,50.6,46.9,29.65,West,278,0.0,1.0,87,0.00,,,0.00,0,WeatherCatV1.02B3,2013-05-16 07:51:00,
2013-05-16 00:56:00,51.1,48.0,29.65,West,278,0.0,0.0,89,0.00,,,0.00,0,WeatherCatV1.02B3,2013-05-16 07:56:00,
2013-05-16 01:01:00,51.2,47.8,29.65,West,278,0.0,0.0,88,0.00,,,0.00,0,WeatherCatV1.02B3,2013-05-16 08:01:00,
2013-05-16 01:06:00,50.9,47.2,29.65,West,278,0.0,0.0,87,0.00,,,0.00,0,WeatherCatV1.02B3,2013-05-16 08:06:00,
2013-05-16 01:11:00,50.6,47.2,29.65,West,278,0.0,0.0,88,0.00,,,0.00,0,WeatherCatV1.02B3,2013-05-16 08:11:00,
2013-05-16 01:16:00,50.7,47.6,29.65,West,278,0.0,0.0,89,0.00,,,0.00,0,WeatherCatV1.02B3,2013-05-16 08:16:00,
2013-05-16 01:21:00,50.8,47.4,29.65,West,278,0.0,0.0,88,0.00,,,0.00,0,WeatherCatV1.02B3,2013-05-16 08:21:00,
2013-05-16 01:26:00,51.0,47.9,29.65,West,278,0.0,0.0,89,0.00,,,0.00,0,WeatherCatV1.02B3,2013-05-16 08:26:00,
2013-05-16 01:31:00,51.2,47.8,29.65,West,278,0.0,0.0,88,0.00,,,0.00,0,WeatherCatV1.02B3,2013-05-16 08:31:00,
2013-05-16 01:36:00,50.8,47.4,29.65,West,278,0.0,0.0,88,0.00,,,0.00,0,WeatherCatV1.02B3,2013-05-16 08:36:00,
2013-05-16 01:41:00,50.3,46.6,29.65,West,278,0.0,0.0,87,0.00,,,0.00,0,WeatherCatV1.02B3,2013-05-16 08:41:00,
2013-05-16 01:46:00,50.2,47.1,29.65,West,278,0.0,0.0,89,0.00,,,0.00,0,WeatherCatV1.02B3,2013-05-16 08:46:00,
2013-05-16 01:51:00,50.1,47.0,29.65,West,278,0.0,0.0,89,0.00,,,0.00,0,WeatherCatV1.02B3,2013-05-16 08:51:00,
2013-05-16 01:56:00,49.6,46.5,29.65,West,278,0.0,0.0,89,0.00,,,0.00,0,WeatherCatV1.02B3,2013-05-16 08:56:00,
2013-05-16 02:01:00,49.7,46.6,29.65,West,278,0.0,0.0,89,0.00,,,0.00,0,WeatherCatV1.02B3,2013-05-16 09:01:00,
2013-05-16 02:06:00,49.9,47.1,29.65,West,278,0.0,0.0,90,0.00,,,0.00,0,WeatherCatV1.02B3,2013-05-16 09:06:00,
2013-05-16 02:11:00,49.7,46.9,29.65,West,278,0.0,0.0,90,0.00,,,0.00,0,WeatherCatV1.02B3,2013-05-16 09:11:00,
2013-05-16 02:16:00,49.0,46.2,29.65,West,278,0.0,0.0,90,0.00,,,0.00,0,WeatherCatV1.02B3,2013-05-16 09:16:00,
2013-05-16 02:21:00,49.0,46.2,29.65,West,278,0.0,0.0,90,0.00,,,0.00,0,WeatherCatV1.02B3,2013-05-16 09:21:00,
2013-05-16 02:26:00,49.2,46.4,29.65,West,278,0.0,0.0,90,0.00,,,0.00,0,WeatherCatV1.02B3,2013-05-16 09:26:00,
2013-05-16 02:31:00,49.1,46.3,29.65,West,278,0.0,0.0,90,0.00,,,0.00,0,WeatherCatV1.02B3,2013-05-16 09:31:00,
2013-05-16 02:36:00,49.0,46.2,29.65,West,278,0.0,0.0,90,0.00,,,0.00,0,WeatherCatV1.02B3,2013-05-16 09:36:00,
2013-05-16 02:41:00,49.5,47.0,29.65,NW,310,0.0,2.0,91,0.00,,,0.00,0,WeatherCatV1.02B3,2013-05-16 09:41:00,
2013-05-16 02:46:00,49.7,46.9,29.65,NW,310,0.0,1.0,90,0.00,,,0.00,0,WeatherCatV1.02B3,2013-05-16 09:46:00,
2013-05-16 02:51:00,49.4,46.6,29.65,NW,310,0.0,0.0,90,0.00,,,0.00,0,WeatherCatV1.02B3,2013-05-16 09:51:00,
2013-05-16 02:56:00,49.4,46.6,29.65,NW,310,0.0,1.0,90,0.00,,,0.00,0,WeatherCatV1.02B3,2013-05-16 09:56:00,
2013-05-16 03:01:00,49.5,46.7,29.65,NW,310,0.0,0.0,90,0.00,,,0.00,0,WeatherCatV1.02B3,2013-05-16 10:01:00,
2013-05-16 03:06:00,49.1,46.0,29.65,NW,310,0.0,0.0,89,0.00,,,0.00,0,WeatherCatV1.02B3,2013-05-16 10:06:00,
2013-05-16 03:11:00,48.5,45.7,29.65,NW,310,0.0,0.0,90,0.00,,,0.00,0,WeatherCatV1.02B3,2013-05-16 10:11:00,
2013-05-16 03:16:00,48.8,46.3,29.65,NW,310,0.0,0.0,91,0.00,,,0.00,0,WeatherCatV1.02B3,2013-05-16 10:16:00,
2013-05-16 03:21:00,48.6,46.1,29.65,NW,310,0.0,0.0,91,0.00,,,0.00,0,WeatherCatV1.02B3,2013-05-16 10:21:00,
2013-05-16 03:26:00,48.3,45.8,29.65,NW,310,0.0,0.0,91,0.00,,,0.00,0,WeatherCatV1.02B3,2013-05-16 10:26:00,
2013-05-16 03:31:00,48.3,45.8,29.65,NW,310,0.0,0.0,91,0.00,,,0.00,0,WeatherCatV1.02B3,2013-05-16 10:31:00,
2013-05-16 03:36:00,48.0,45.5,29.65,NW,310,0.0,0.0,91,0.00,,,0.00,0,WeatherCatV1.02B3,2013-05-16 10:36:00,
2013-05-16 03:41:00,47.8,45.3,29.65,NW,310,0.0,0.0,91,0.00,,,0.00,0,WeatherCatV1.02B3,2013-05-16 10:41:00,
2013-05-16 03:46:00,47.5,45.0,29.65,NW,310,0.0,0.0,91,0.00,,,0.00,0,WeatherCatV1.02B3,2013-05-16 10:46:00,
2013-05-16 03:51:00,47.7,45.5,29.65,NW,310,0.0,0.0,92,0.00,,,0.00,0,WeatherCatV1.02B3,2013-05-16 10:51:00,
2013-05-16 03:56:00,47.8,45.6,29.65,NW,310,0.0,0.0,92,0.00,,,0.00,0,WeatherCatV1.02B3,2013-05-16 10:56:00,
2013-05-16 04:01:00,48.0,45.8,29.65,NW,310,0.0,0.0,92,0.00,,,0.00,0,WeatherCatV1.02B3,2013-05-16 11:01:00,
2013-05-16 04:06:00,47.9,45.7,29.65,NW,310,0.0,0.0,92,0.00,,,0.00,0,WeatherCatV1.02B3,2013-05-16 11:06:00,
2013-05-16 04:11:00,47.6,45.4,29.65,NW,310,0.0,0.0,92,0.00,,,0.00,0,WeatherCatV1.02B3,2013-05-16 11:11:00,
2013-05-16 04:16:00,47.8,45.6,29.65,NW,310,0.0,0.0,92,0.00,,,0.00,0,WeatherCatV1.02B3,2013-05-16 11:16:00,
2013-05-16 04:21:00,47.6,45.4,29.65,NW,310,0.0,0.0,92,0.00,,,0.00,0,WeatherCatV1.02B3,2013-05-16 11:21:00,
2013-05-16 04:26:00,47.5,45.3,29.65,NW,310,0.0,0.0,92,0.00,,,0.00,0,WeatherCatV1.02B3,2013-05-16 11:26:00,
2013-05-16 04:31:00,47.1,44.9,29.65,NW,310,0.0,0.0,92,0.00,,,0.00,0,WeatherCatV1.02B3,2013-05-16 11:31:00,
2013-05-16 04:36:00,47.4,45.5,29.65,NE,51,0.0,1.0,93,0.00,,,0.00,0,WeatherCatV1.02B3,2013-05-16 11:36:00,
2013-05-16 04:41:00,47.5,45.3,29.65,NE,51,0.0,0.0,92,0.00,,,0.00,0,WeatherCatV1.02B3,2013-05-16 11:41:00,
2013-05-16 04:46:00,46.7,44.5,29.65,NE,51,0.0,0.0,92,0.00,,,0.00,0,WeatherCatV1.02B3,2013-05-16 11:46:00,
2013-05-16 04:51:00,46.7,44.5,29.65,NE,51,0.0,0.0,92,0.00,,,0.00,0,WeatherCatV1.02B3,2013-05-16 11:51:00,
2013-05-16 04:56:00,46.8,44.9,29.65,NE,51,0.0,0.0,93,0.00,,,0.00,0,WeatherCatV1.02B3,2013-05-16 11:56:00,
2013-05-16 05:01:00,46.8,44.9,29.65,NE,51,0.0,0.0,93,0.00,,,0.00,0,WeatherCatV1.02B3,2013-05-16 12:01:00,
2013-05-16 05:06:00,46.7,44.8,29.65,NE,51,0.0,0.0,93,0.00,,,0.00,0,WeatherCatV1.02B3,2013-05-16 12:06:00,
2013-05-16 05:11:00,46.9,45.0,29.65,NE,51,0.0,0.0,93,0.00,,,0.00,0,WeatherCatV1.02B3,2013-05-16 12:11:00,
2013-05-16 05:16:00,46.8,44.9,29.65,NE,51,0.0,0.0,93,0.00,,,0.00,0,WeatherCatV1.02B3,2013-05-16 12:16:00,
2013-05-16 05:21:00,46.7,44.8,29.65,NE,51,0.0,0.0,93,0.00,,,0.00,0,WeatherCatV1.02B3,2013-05-16 12:21:00,
2013-05-16 05:26:00,46.9,45.3,29.65,NE,51,0.0,0.0,94,0.00,,,0.00,0,WeatherCatV1.02B3,2013-05-16 12:26:00,
2013-05-16 05:31:00,46.6,44.7,29.65,NE,51,0.0,0.0,93,0.00,,,0.00,0,WeatherCatV1.02B3,2013-05-16 12:31:00,
2013-05-16 05:36:00,46.4,44.5,29.65,NE,51,0.0,0.0,93,0.00,,,0.00,0,WeatherCatV1.02B3,2013-05-16 12:36:00,
2013-05-16 05:41:00,46.3,44.4,29.65,NE,51,0.0,0.0,93,0.00,,,0.00,0,WeatherCatV1.02B3,2013-05-16 12:41:00,
2013-05-16 05:46:00,46.3,44.4,29.65,NE,51,0.0,0.0,93,0.00,,,0.00,0,WeatherCatV1.02B3,2013-05-16 12:46:00,
2013-05-16 05:51:00,45.8,43.9,29.65,NE,51,0.0,0.0,93,0.00,,,0.00,0,WeatherCatV1.02B3,2013-05-16 12:51:00,
2013-05-16 05:56:00,45.9,44.3,29.65,NE,51,0.0,0.0,94,0.00,,,0.00,0,WeatherCatV1.02B3,2013-05-16 12:56:00,
2013-05-16 06:01:00,46.1,44.5,29.65,NE,51,0.0,0.0,94,0.00,,,0.00,7,WeatherCatV1.02B3,2013-05-16 13:01:00,
2013-05-16 06:06:00,46.4,44.8,29.65,NE,51,0.0,0.0,94,0.00,,,0.00,11,WeatherCatV1.02B3,2013-05-16 13:06:00,
2013-05-16 06:11:00,46.2,44.3,29.65,NE,51,0.0,0.0,93,0.00,,,0.00,14,WeatherCatV1.02B3,2013-05-16 13:11:00,
2013-05-16 06:16:00,45.6,43.7,29.65,NE,51,0.0,1.0,93,0.00,,,0.00,18,WeatherCatV1.02B3,2013-05-16 13:16:00,
2013-05-16 06:21:00,45.7,43.8,29.65,NE,51,0.0,0.0,93,0.00,,,0.00,19,WeatherCatV1.02B3,2013-05-16 13:21:00,
2013-05-16 06:26:00,46.3,44.7,29.65,NE,51,0.0,0.0,94,0.00,,,0.00,23,WeatherCatV1.02B3,2013-05-16 13:26:00,
2013-05-16 06:31:00,46.5,44.9,29.65,NE,51,0.0,0.0,94,0.00,,,0.00,25,WeatherCatV1.02B3,2013-05-16 13:31:00,
2013-05-16 06:36:00,46.7,45.1,29.65,NE,51,0.0,0.0,94,0.00,,,0.00,23,WeatherCatV1.02B3,2013-05-16 13:36:00,
2013-05-16 06:41:00,46.5,44.6,29.65,NE,51,0.0,0.0,93,0.00,,,0.00,28,WeatherCatV1.02B3,2013-05-16 13:41:00,
2013-05-16 06:46:00,46.5,44.9,29.65,NE,51,0.0,0.0,94,0.00,,,0.00,30,WeatherCatV1.02B3,2013-05-16 13:46:00,
2013-05-16 06:51:00,47.0,45.4,29.65,NE,51,0.0,0.0,94,0.00,,,0.00,30,WeatherCatV1.02B3,2013-05-16 13:51:00,
2013-05-16 06:53:00,47.1,45.5,29.65,NE,51,0.0,0.0,94,0.00,,,0.00,32,WeatherCatV1.02B3,2013-05-16 13:53:00,
2013-05-16 06:58:00,47.1,45.5,29.65,NE,51,0.0,0.0,94,0.00,,,0.00,44,WeatherCatV1.02B3,2013-05-16 13:58:00,
2013-05-16 07:03:00,47.3,45.7,29.65,NE,51,0.0,0.0,94,0.00,,,0.00,47,WeatherCatV1.02B3,2013-05-16 14:03:00,
2013-05-16 07:08:00,47.9,46.3,29.65,NE,51,0.0,0.0,94,0.00,,,0.00,49,WeatherCatV1.02B3,2013-05-16 14:08:00,
2013-05-16 07:13:00,48.9,47.2,29.65,NE,51,0.0,0.0,94,0.00,,,0.00,56,WeatherCatV1.02B3,2013-05-16 14:13:00,
2013-05-16 07:18:00,49.5,47.6,29.65,NE,51,0.0,0.0,93,0.00,,,0.00,56,WeatherCatV1.02B3,2013-05-16 14:18:00,
2013-05-16 07:23:00,50.1,47.9,29.65,NE,51,0.0,0.0,92,0.00,,,0.00,60,WeatherCatV1.02B3,2013-05-16 14:23:00,
2013-05-16 07:28:00,50.6,48.1,29.65,NE,51,0.0,0.0,91,0.00,,,0.00,70,WeatherCatV1.02B3,2013-05-16 14:28:00,
2013-05-16 07:33:00,51.3,48.5,29.65,NE,51,0.0,0.0,90,0.00,,,0.00,70,WeatherCatV1.02B3,2013-05-16 14:33:00,
2013-05-16 07:38:00,52.1,49.0,29.65,NNW,344,1.0,2.0,89,0.00,,,0.00,74,WeatherCatV1.02B3,2013-05-16 14:38:00,
2013-05-16 07:43:00,52.7,49.2,29.65,NNW,344,0.0,0.0,88,0.00,,,0.00,83,WeatherCatV1.02B3,2013-05-16 14:43:00,
2013-05-16 07:48:00,53.6,50.1,29.65,NNW,333,0.0,1.0,88,0.00,,,0.00,93,WeatherCatV1.02B3,2013-05-16 14:48:00,
2013-05-16 07:53:00,54.5,50.7,29.65,NNW,333,1.0,1.0,87,0.00,,,0.00,151,WeatherCatV1.02B3,2013-05-16 14:53:00,
2013-05-16 07:58:00,55.3,50.9,29.65,NW,321,1.0,1.0,85,0.00,,,0.00,167,WeatherCatV1.02B3,2013-05-16 14:58:00,
2013-05-16 08:03:00,56.2,51.4,29.65,SSE,149,2.0,3.0,84,0.00,,,0.00,279,WeatherCatV1.02B3,2013-05-16 15:03:00,
2013-05-16 08:08:00,56.7,51.6,29.65,SSW,209,0.0,0.0,83,0.00,,,0.00,241,WeatherCatV1.02B3,2013-05-16 15:08:00,
2013-05-16 08:13:00,57.3,52.2,29.65,West,272,0.0,1.0,83,0.00,,,0.00,276,WeatherCatV1.02B3,2013-05-16 15:13:00,
2013-05-16 08:18:00,57.9,52.4,29.65,NW,309,0.0,1.0,82,0.00,,,0.00,264,WeatherCatV1.02B3,2013-05-16 15:18:00,
2013-05-16 08:23:00,58.4,52.9,29.65,WSW,252,0.0,3.0,82,0.00,,,0.00,325,WeatherCatV1.02B3,2013-05-16 15:23:00,
2013-05-16 08:28:00,59.2,53.4,29.65,SE,129,0.0,1.0,81,0.00,,,0.00,367,WeatherCatV1.02B3,2013-05-16 15:28:00,
2013-05-16 08:33:00,59.9,53.4,29.65,South,175,0.0,3.0,79,0.00,,,0.00,418,WeatherCatV1.02B3,2013-05-16 15:33:00,
2013-05-16 08:38:00,60.7,54.5,29.65,West,278,1.0,3.0,80,0.00,,,0.00,392,WeatherCatV1.02B3,2013-05-16 15:38:00,
2013-05-16 08:43:00,61.1,54.2,29.65,SSE,163,0.0,3.0,78,0.00,,,0.00,462,WeatherCatV1.02B3,2013-05-16 15:43:00,
2013-05-16 08:48:00,62.1,54.4,29.65,West,261,3.0,6.0,76,0.00,,,0.00,490,WeatherCatV1.02B3,2013-05-16 15:48:00,
2013-05-16 08:53:00,62.6,54.2,29.65,WSW,252,5.0,5.0,74,0.00,,,0.00,492,WeatherCatV1.02B3,2013-05-16 15:53:00,
2013-05-16 08:58:00,63.2,54.4,29.65,West,280,2.0,5.0,73,0.00,,,0.00,506,WeatherCatV1.02B3,2013-05-16 15:58:00,
2013-05-16 09:03:00,63.5,53.9,29.65,West,277,3.0,7.0,71,0.00,,,0.00,547,WeatherCatV1.02B3,2013-05-16 16:03:00,
2013-05-16 09:08:00,63.6,53.6,29.65,SE,132,1.0,6.0,70,0.00,,,0.00,592,WeatherCatV1.02B3,2013-05-16 16:08:00,
2013-05-16 09:13:00,63.9,53.5,29.65,WNW,290,2.0,6.0,69,0.00,,,0.00,610,WeatherCatV1.02B3,2013-05-16 16:13:00,
2013-05-16 09:18:00,64.8,53.6,29.65,NNE,16,1.0,4.0,67,0.00,,,0.00,612,WeatherCatV1.02B3,2013-05-16 16:18:00,
2013-05-16 09:23:00,65.2,54.0,29.65,SSE,167,0.0,3.0,67,0.00,,,0.00,582,WeatherCatV1.02B3,2013-05-16 16:23:00,
2013-05-16 09:28:00,65.0,53.8,29.65,West,262,0.0,2.0,67,0.00,,,0.00,387,WeatherCatV1.02B3,2013-05-16 16:28:00,
2013-05-16 09:33:00,64.8,54.0,29.65,WSW,239,0.0,4.0,68,0.00,,,0.00,360,WeatherCatV1.02B3,2013-05-16 16:33:00,
2013-05-16 09:38:00,64.8,54.4,29.65,WSW,241,3.0,3.0,69,0.00,,,0.00,663,WeatherCatV1.02B3,2013-05-16 16:38:00,
2013-05-16 09:43:00,65.3,54.5,29.65,WNW,294,2.0,6.0,68,0.00,,,0.00,719,WeatherCatV1.02B3,2013-05-16 16:43:00,
2013-05-16 09:48:00,66.6,55.3,29.65,WNW,296,3.0,6.0,67,0.00,,,0.00,710,WeatherCatV1.02B3,2013-05-16 16:48:00,
2013-05-16 09:53:00,66.7,55.0,29.65,WSW,250,0.0,3.0,66,0.00,,,0.00,571,WeatherCatV1.02B3,2013-05-16 16:53:00,
2013-05-16 09:58:00,66.4,54.3,29.65,WNW,288,5.0,5.0,65,0.00,,,0.00,615,WeatherCatV1.02B3,2013-05-16 16:58:00,
2013-05-16 10:03:00,66.2,54.1,29.65,East,92,1.0,5.0,65,0.00,,,0.00,721,WeatherCatV1.02B3,2013-05-16 17:03:00,
2013-05-16 10:08:00,66.7,54.6,29.65,West,271,4.0,5.0,65,0.00,,,0.00,603,WeatherCatV1.02B3,2013-05-16 17:08:00,
2013-05-16 10:13:00,66.5,54.8,29.65,East,82,1.0,2.0,66,0.00,,,0.00,432,WeatherCatV1.02B3,2013-05-16 17:13:00,
2013-05-16 10:18:00,67.6,55.4,29.65,West,273,2.0,2.0,65,0.00,,,0.00,717,WeatherCatV1.02B3,2013-05-16 17:18:00,
2013-05-16 10:24:00,69.3,55.3,29.65,NNE,28,1.0,5.0,61,0.00,,,0.00,687,WeatherCatV1.02B3,2013-05-16 17:24:00,
2013-05-16 10:29:00,68.5,54.5,29.65,ENE,65,0.0,4.0,61,0.00,,,0.00,615,WeatherCatV1.02B3,2013-05-16 17:29:00,
2013-05-16 10:34:00,68.4,55.3,29.65,NE,40,0.0,6.0,63,0.00,,,0.00,766,WeatherCatV1.02B3,2013-05-16 17:34:00,
2013-05-16 10:39:00,69.0,55.4,29.65,South,177,1.0,7.0,62,0.00,,,0.00,545,WeatherCatV1.02B3,2013-05-16 17:39:00,
2013-05-16 10:44:00,69.3,55.3,29.65,NE,52,0.0,7.0,61,0.00,,,0.00,817,WeatherCatV1.02B3,2013-05-16 17:44:00,
2013-05-16 10:49:00,69.5,55.0,29.65,West,276,2.0,7.0,60,0.00,,,0.00,608,WeatherCatV1.02B3,2013-05-16 17:49:00,
2013-05-16 10:54:00,70.5,55.5,29.65,ENE,72,2.0,6.0,59,0.00,,,0.00,817,WeatherCatV1.02B3,2013-05-16 17:54:00,
2013-05-16 10:59:00,69.4,54.9,29.65,East,89,3.0,6.0,60,0.00,,,0.00,559,WeatherCatV1.02B3,2013-05-16 17:59:00,
2013-05-16 11:04:00,69.7,54.7,29.65,ENE,76,3.0,8.0,59,0.00,,,0.00,823,WeatherCatV1.02B3,2013-05-16 18:04:00,
2013-05-16 11:09:00,71.4,56.3,29.65,NW,312,2.0,4.0,59,0.00,,,0.00,923,WeatherCatV1.02B3,2013-05-16 18:09:00,
2013-05-16 11:14:00,70.7,55.2,29.65,SE,125,0.0,3.0,58,0.00,,,0.00,710,WeatherCatV1.02B3,2013-05-16 18:14:00,
2013-05-16 11:19:00,70.7,55.7,29.65,WSW,253,4.0,5.0,59,0.00,,,0.00,823,WeatherCatV1.02B3,2013-05-16 18:19:00,
2013-05-16 11:24:00,69.5,55.4,29.65,West,272,3.0,4.0,61,0.00,,,0.00,364,WeatherCatV1.02B3,2013-05-16 18:24:00,
2013-05-16 11:29:00,70.1,55.6,29.65,NW,323,0.0,3.0,60,0.00,,,0.00,1048,WeatherCatV1.02B3,2013-05-16 18:29:00,
2013-05-16 11:34:00,70.2,55.7,29.65,West,279,6.0,6.0,60,0.00,,,0.00,469,WeatherCatV1.02B3,2013-05-16 18:34:00,
2013-05-16 11:39:00,70.3,56.2,29.65,North,0,2.0,2.0,61,0.00,,,0.00,515,WeatherCatV1.02B3,2013-05-16 18:39:00,
2013-05-16 11:44:00,70.6,56.0,29.65,WSW,257,3.0,6.0,60,0.00,,,0.00,751,WeatherCatV1.02B3,2013-05-16 18:44:00,
2013-05-16 11:49:00,70.5,55.5,29.65,WNW,290,3.0,5.0,59,0.00,,,0.00,802,WeatherCatV1.02B3,2013-05-16 18:49:00,
2013-05-16 11:54:00,69.0,55.0,29.65,NNW,347,0.0,4.0,61,0.00,,,0.00,295,WeatherCatV1.02B3,2013-05-16 18:54:00,
2013-05-16 11:59:00,69.5,55.4,29.65,WNW,300,1.0,5.0,61,0.00,,,0.00,689,WeatherCatV1.02B3,2013-05-16 18:59:00,
2013-05-16 12:04:00,69.6,55.5,29.65,NE,51,2.0,5.0,61,0.00,,,0.00,381,WeatherCatV1.02B3,2013-05-16 19:04:00,
2013-05-16 12:09:00,70.6,55.6,29.65,NE,51,2.0,7.0,59,0.00,,,0.00,995,WeatherCatV1.02B3,2013-05-16 19:09:00,
2013-05-16 12:14:00,71.0,56.4,29.65,SW,236,2.0,7.0,60,0.00,,,0.00,981,WeatherCatV1.02B3,2013-05-16 19:14:00,
2013-05-16 12:19:00,71.7,56.1,29.65,WSW,246,1.0,5.0,58,0.00,,,0.00,675,WeatherCatV1.02B3,2013-05-16 19:19:00,
2013-05-16 12:24:00,71.2,55.7,29.65,WNW,290,1.0,7.0,58,0.00,,,0.00,935,WeatherCatV1.02B3,2013-05-16 19:24:00,
2013-05-16 12:29:00,72.7,57.1,29.65,NE,47,3.0,5.0,58,0.00,,,0.00,986,WeatherCatV1.02B3,2013-05-16 19:29:00,
2013-05-16 12:34:00,72.5,55.9,29.65,ENE,60,1.0,5.0,56,0.00,,,0.00,905,WeatherCatV1.02B3,2013-05-16 19:34:00,
2013-05-16 12:39:00,72.2,56.1,29.65,NNE,13,2.0,3.0,57,0.00,,,0.00,603,WeatherCatV1.02B3,2013-05-16 19:39:00,
2013-05-16 12:44:00,71.7,56.1,29.65,West,273,0.0,2.0,58,0.00,,,0.00,529,WeatherCatV1.02B3,2013-05-16 19:44:00,
2013-05-16 12:49:00,71.1,55.6,29.65,North,0,2.0,5.0,58,0.00,,,0.00,881,WeatherCatV1.02B3,2013-05-16 19:49:00,
2013-05-16 12:54:00,70.6,55.6,29.65,WSW,252,0.0,6.0,59,0.00,,,0.00,585,WeatherCatV1.02B3,2013-05-16 19:54:00,
2013-05-16 12:59:00,71.1,56.0,29.65,NNE,27,0.0,5.0,59,0.00,,,0.00,563,WeatherCatV1.02B3,2013-05-16 19:59:00,
2013-05-16 13:04:00,71.9,56.8,29.65,NNW,344,1.0,2.0,59,0.00,,,0.00,833,WeatherCatV1.02B3,2013-05-16 20:04:00,
2013-05-16 13:09:00,71.7,55.6,29.65,NE,45,1.0,5.0,57,0.00,,,0.00,838,WeatherCatV1.02B3,2013-05-16 20:09:00,
2013-05-16 13:14:00,71.8,56.2,29.65,West,280,2.0,5.0,58,0.00,,,0.00,949,WeatherCatV1.02B3,2013-05-16 20:14:00,
2013-05-16 13:19:00,71.5,55.5,29.65,South,171,0.0,9.0,57,0.00,,,0.00,933,WeatherCatV1.02B3,2013-05-16 20:19:00,
2013-05-16 13:24:00,72.2,56.1,29.65,ESE,107,4.0,5.0,57,0.00,,,0.00,654,WeatherCatV1.02B3,2013-05-16 20:24:00,
2013-05-16 13:29:00,71.7,55.6,29.65,ENE,69,2.0,4.0,57,0.00,,,0.00,557,WeatherCatV1.02B3,2013-05-16 20:29:00,
2013-05-16 13:34:00,71.2,55.7,29.65,ESE,114,2.0,7.0,58,0.00,,,0.00,510,WeatherCatV1.02B3,2013-05-16 20:34:00,
2013-05-16 13:39:00,71.2,55.7,29.65,North,5,0.0,2.0,58,0.00,,,0.00,573,WeatherCatV1.02B3,2013-05-16 20:39:00,
2013-05-16 13:44:00,70.9,55.4,29.65,NNE,32,0.0,8.0,58,0.00,,,0.00,617,WeatherCatV1.02B3,2013-05-16 20:44:00,
2013-05-16 13:49:00,70.4,55.4,29.65,East,94,1.0,7.0,59,0.00,,,0.00,606,WeatherCatV1.02B3,2013-05-16 20:49:00,
2013-05-16 13:54:00,70.9,55.4,29.65,East,82,5.0,7.0,58,0.00,,,0.00,812,WeatherCatV1.02B3,2013-05-16 20:54:00,
2013-05-16 13:59:00,70.2,55.2,29.65,NNW,336,0.0,3.0,59,0.00,,,0.00,425,WeatherCatV1.02B3,2013-05-16 20:59:00,
2013-05-16 14:04:00,69.5,55.0,29.65,North,5,0.0,2.0,60,0.00,,,0.00,381,WeatherCatV1.02B3,2013-05-16 21:04:00,
2013-05-16 14:09:00,69.5,55.0,29.65,NNE,23,1.0,3.0,60,0.00,,,0.00,527,WeatherCatV1.02B3,2013-05-16 21:09:00,
2013-05-16 14:14:00,70.3,55.7,29.65,East,79,2.0,2.0,60,0.00,,,0.00,534,WeatherCatV1.02B3,2013-05-16 21:14:00,
2013-05-16 14:19:00,70.1,55.1,29.65,North,5,0.0,2.0,59,0.00,,,0.00,492,WeatherCatV1.02B3,2013-05-16 21:19:00,
2013-05-16 14:24:00,69.3,55.3,29.65,NNE,21,4.0,9.0,61,0.00,,,0.00,469,WeatherCatV1.02B3,2013-05-16 21:24:00,
2013-05-16 14:29:00,71.3,55.7,29.65,NE,46,4.0,4.0,58,0.00,,,0.00,1005,WeatherCatV1.02B3,2013-05-16 21:29:00,
2013-05-16 14:34:00,72.8,56.2,29.65,NE,38,3.0,3.0,56,0.00,,,0.00,949,WeatherCatV1.02B3,2013-05-16 21:34:00,
2013-05-16 14:39:00,72.0,56.4,29.65,East,88,3.0,3.0,58,0.00,,,0.00,596,WeatherCatV1.02B3,2013-05-16 21:39:00,
2013-05-16 14:44:00,72.0,55.4,29.65,NE,38,1.0,6.0,56,0.00,,,0.00,919,WeatherCatV1.02B3,2013-05-16 21:44:00,
2013-05-16 14:49:00,71.0,54.5,29.65,NW,317,2.0,4.0,56,0.00,,,0.00,492,WeatherCatV1.02B3,2013-05-16 21:49:00,
2013-05-16 14:54:00,69.9,54.9,29.65,SE,144,5.0,5.0,59,0.00,,,0.00,870,WeatherCatV1.02B3,2013-05-16 21:54:00,
2013-05-16 14:59:00,70.6,54.6,29.65,NNE,20,2.0,8.0,57,0.00,,,0.00,729,WeatherCatV1.02B3,2013-05-16 21:59:00,
2013-05-16 15:04:00,70.8,55.3,29.65,East,98,2.0,4.0,58,0.00,,,0.00,717,WeatherCatV1.02B3,2013-05-16 22:04:00,
2013-05-16 15:09:00,71.1,55.6,29.65,NE,39,0.0,2.0,58,0.00,,,0.00,814,WeatherCatV1.02B3,2013-05-16 22:09:00,
2013-05-16 15:14:00,71.7,55.2,29.65,NW,307,0.0,8.0,56,0.00,,,0.00,758,WeatherCatV1.02B3,2013-05-16 22:14:00,
2013-05-16 15:19:00,70.8,55.3,29.65,NNW,327,0.0,2.0,58,0.00,,,0.00,754,WeatherCatV1.02B3,2013-05-16 22:19:00,
2013-05-16 15:24:00,71.5,54.5,29.65,East,88,2.0,4.0,55,0.00,,,0.00,454,WeatherCatV1.02B3,2013-05-16 22:24:00,
2013-05-16 15:29:00,70.3,54.8,29.65,NE,54,2.0,5.0,58,0.00,,,0.00,643,WeatherCatV1.02B3,2013-05-16 22:29:00,
2013-05-16 15:34:00,70.2,55.2,29.65,ESE,107,2.0,7.0,59,0.00,,,0.00,587,WeatherCatV1.02B3,2013-05-16 22:34:00,
2013-05-16 15:35:00,70.3,54.8,29.65,ENE,72,5.0,7.0,58,0.00,,,0.00,533,WeatherCatV1.02B3,2013-05-16 22:35:00,
2013-05-16 15:40:00,69.2,55.2,29.65,East,87,3.0,3.0,61,0.00,,,0.00,366,WeatherCatV1.02B3,2013-05-16 22:40:00,
2013-05-16 15:45:00,68.4,54.0,29.65,ENE,60,5.0,5.0,60,0.00,,,0.00,408,WeatherCatV1.02B3,2013-05-16 22:45:00,
2013-05-16 15:50:00,67.4,53.9,29.65,East,92,2.0,3.0,62,0.00,,,0.00,390,WeatherCatV1.02B3,2013-05-16 22:50:00,
2013-05-16 15:55:00,67.7,54.2,29.65,ENE,69,2.0,7.0,62,0.00,,,0.00,279,WeatherCatV1.02B3,2013-05-16 22:55:00,
2013-05-16 16:00:00,66.8,54.2,29.65,East,99,3.0,5.0,64,0.00,,,0.00,225,WeatherCatV1.02B3,2013-05-16 23:00:00,
2013-05-16 16:05:00,66.9,53.9,29.65,East,95,1.0,3.0,63,0.00,,,0.00,209,WeatherCatV1.02B3,2013-05-16 23:05:00,
2013-05-16 16:10:00,66.4,53.8,29.65,ENE,57,1.0,3.0,64,0.00,,,0.00,209,WeatherCatV1.02B3,2013-05-16 23:10:00,
2013-05-16 16:15:00,65.8,53.7,29.65,East,92,1.0,4.0,65,0.00,,,0.00,218,WeatherCatV1.02B3,2013-05-16 23:15:00,
2013-05-16 16:20:00,65.6,53.5,29.65,East,87,2.0,3.0,65,0.00,,,0.00,213,WeatherCatV1.02B3,2013-05-16 23:20:00,
2013-05-16 16:25:00,65.6,53.9,29.65,ENE,69,2.0,2.0,66,0.00,,,0.00,206,WeatherCatV1.02B3,2013-05-16 23:25:00,
2013-05-16 16:30:00,65.8,54.1,29.65,NE,51,2.0,5.0,66,0.00,,,0.00,186,WeatherCatV1.02B3,2013-05-16 23:30:00,
2013-05-16 16:35:00,65.5,53.8,29.65,NNE,32,2.0,3.0,66,0.00,,,0.00,190,WeatherCatV1.02B3,2013-05-16 23:35:00,
2013-05-16 16:40:00,65.5,54.7,29.65,WNW,296,1.0,3.0,68,0.00,,,0.00,197,WeatherCatV1.02B3,2013-05-16 23:40:00,
2013-05-16 16:45:00,65.4,54.1,29.65,ENE,78,0.0,1.0,67,0.00,,,0.00,169,WeatherCatV1.02B3,2013-05-16 23:45:00,
2013-05-16 16:50:00,65.0,53.4,29.65,ENE,57,1.0,3.0,66,0.00,,,0.00,137,WeatherCatV1.02B3,2013-05-16 23:50:00,
2013-05-16 16:55:00,64.4,54.0,29.65,South,188,0.0,3.0,69,0.00,,,0.00,120,WeatherCatV1.02B3,2013-05-16 23:55:00,
2013-05-16 17:00:00,64.5,53.7,29.65,WNW,283,1.0,3.0,68,0.00,,,0.00,109,WeatherCatV1.02B3,2013-05-17 00:00:00,
2013-05-16 17:05:00,64.6,53.8,29.65,WNW,291,3.0,3.0,68,0.00,,,0.00,105,WeatherCatV1.02B3,2013-05-17 00:05:00,
2013-05-16 17:10:00,64.3,53.5,29.65,NW,317,1.0,5.0,68,0.00,,,0.00,107,WeatherCatV1.02B3,2013-05-17 00:10:00,
2013-05-16 17:15:00,64.0,53.6,29.65,West,265,1.0,4.0,69,0.00,,,0.00,107,WeatherCatV1.02B3,2013-05-17 00:15:00,
2013-05-16 17:20:00,63.8,53.4,29.65,NNW,327,1.0,2.0,69,0.00,,,0.00,104,WeatherCatV1.02B3,2013-05-17 00:20:00,
2013-05-16 17:25:00,63.6,53.2,29.65,WNW,284,0.0,3.0,69,0.00,,,0.00,102,WeatherCatV1.02B3,2013-05-17 00:25:00,
2013-05-16 17:30:00,63.3,53.3,29.65,West,265,0.0,4.0,70,0.00,,,0.00,105,WeatherCatV1.02B3,2013-05-17 00:30:00,
2013-05-16 17:35:00,63.1,53.2,29.65,East,96,2.0,3.0,70,0.00,,,0.00,100,WeatherCatV1.02B3,2013-05-17 00:35:00,
2013-05-16 17:40:00,63.0,53.1,29.65,NNW,346,1.0,1.0,70,0.00,,,0.00,90,WeatherCatV1.02B3,2013-05-17 00:40:00,
2013-05-16 17:45:00,63.6,53.2,29.65,SE,138,0.0,1.0,69,0.00,,,0.00,83,WeatherCatV1.02B3,2013-05-17 00:45:00,
2013-05-16 17:50:00,63.3,53.3,29.65,West,273,3.0,3.0,70,0.00,,,0.00,77,WeatherCatV1.02B3,2013-05-17 00:50:00,
2013-05-16 17:55:00,63.1,53.2,29.65,West,270,0.0,2.0,70,0.00,,,0.00,79,WeatherCatV1.02B3,2013-05-17 00:55:00,
2013-05-16 18:01:00,63.1,53.2,29.65,ENE,61,1.0,1.0,70,0.00,,,0.00,74,WeatherCatV1.02B3,2013-05-17 01:01:00,
2013-05-16 18:06:00,63.2,53.2,29.65,NE,53,0.0,1.0,70,0.00,,,0.00,69,WeatherCatV1.02B3,2013-05-17 01:06:00,
2013-05-16 18:11:00,63.4,53.0,29.65,ENE,63,0.0,1.0,69,0.00,,,0.00,62,WeatherCatV1.02B3,2013-05-17 01:11:00,
2013-05-16 18:16:00,63.5,53.1,29.65,NE,38,0.0,1.0,69,0.00,,,0.00,60,WeatherCatV1.02B3,2013-05-17 01:16:00,
2013-05-16 18:21:00,63.6,53.2,29.65,WSW,258,2.0,2.0,69,0.00,,,0.00,63,WeatherCatV1.02B3,2013-05-17 01:21:00,
2013-05-16 18:26:00,63.5,53.1,29.65,West,271,3.0,3.0,69,0.00,,,0.00,65,WeatherCatV1.02B3,2013-05-17 01:26:00,
2013-05-16 18:31:00,63.4,53.0,29.65,WNW,293,0.0,2.0,69,0.00,,,0.00,67,WeatherCatV1.02B3,2013-05-17 01:31:00,
2013-05-16 18:36:00,63.4,53.4,29.65,West,281,0.0,0.0,70,0.00,,,0.00,62,WeatherCatV1.02B3,2013-05-17 01:36:00,
2013-05-16 18:41:00,63.3,53.3,29.65,West,277,2.0,3.0,70,0.00,,,0.00,79,WeatherCatV1.02B3,2013-05-17 01:41:00,
2013-05-16 18:46:00,63.2,53.2,29.65,WSW,256,0.0,3.0,70,0.00,,,0.00,69,WeatherCatV1.02B3,2013-05-17 01:46:00,
2013-05-16 18:51:00,63.3,53.3,29.65,West,280,2.0,3.0,70,0.00,,,0.00,95,WeatherCatV1.02B3,2013-05-17 01:51:00,
2013-05-16 18:56:00,63.4,53.4,29.65,WNW,286,2.0,2.0,70,0.00,,,0.00,63,WeatherCatV1.02B3,2013-05-17 01:56:00,
2013-05-16 19:01:00,63.0,53.1,29.65,West,270,1.0,3.0,70,0.00,,,0.00,58,WeatherCatV1.02B3,2013-05-17 02:01:00,
2013-05-16 19:06:00,62.8,53.3,29.65,West,262,3.0,4.0,71,0.00,,,0.00,69,WeatherCatV1.02B3,2013-05-17 02:06:00,
2013-05-16 19:11:00,62.8,53.3,29.65,WSW,257,0.0,2.0,71,0.00,,,0.00,81,WeatherCatV1.02B3,2013-05-17 02:11:00,
2013-05-16 19:16:00,62.8,53.3,29.65,WSW,244,0.0,1.0,71,0.00,,,0.00,67,WeatherCatV1.02B3,2013-05-17 02:16:00,
2013-05-16 19:21:00,62.7,53.2,29.65,West,262,1.0,3.0,71,0.00,,,0.00,58,WeatherCatV1.02B3,2013-05-17 02:21:00,
2013-05-16 19:26:00,62.7,53.5,29.65,West,262,0.0,1.0,72,0.00,,,0.00,49,WeatherCatV1.02B3,2013-05-17 02:26:00,
2013-05-16 19:31:00,62.7,53.5,29.65,West,262,0.0,1.0,72,0.00,,,0.00,39,WeatherCatV1.02B3,2013-05-17 02:31:00,
2013-05-16 19:36:00,62.5,53.3,29.65,West,259,0.0,0.0,72,0.00,,,0.00,32,WeatherCatV1.02B3,2013-05-17 02:36:00,
2013-05-16 19:41:00,62.5,53.3,29.65,West,259,0.0,0.0,72,0.00,,,0.00,28,WeatherCatV1.02B3,2013-05-17 02:41:00,
2013-05-16 19:46:00,62.3,53.5,29.65,West,259,0.0,0.0,73,0.00,,,0.00,21,WeatherCatV1.02B3,2013-05-17 02:46:00,
2013-05-16 19:51:00,62.1,53.3,29.65,West,259,0.0,0.0,73,0.00,,,0.00,12,WeatherCatV1.02B3,2013-05-17 02:51:00,
2013-05-16 19:56:00,61.9,53.1,29.65,West,259,0.0,0.0,73,0.00,,,0.00,5,WeatherCatV1.02B3,2013-05-17 02:56:00,
2013-05-16 20:01:00,61.6,53.2,29.65,West,259,0.0,0.0,74,0.00,,,0.00,0,WeatherCatV1.02B3,2013-05-17 03:01:00,
2013-05-16 20:06:00,61.3,52.9,29.65,West,259,0.0,0.0,74,0.00,,,0.00,0,WeatherCatV1.02B3,2013-05-17 03:06:00,
2013-05-16 20:11:00,60.9,52.6,29.65,West,259,1.0,1.0,74,0.00,,,0.00,0,WeatherCatV1.02B3,2013-05-17 03:11:00,
2013-05-16 20:16:00,60.3,52.3,29.65,West,259,0.0,0.0,75,0.00,,,0.00,0,WeatherCatV1.02B3,2013-05-17 03:16:00,
2013-05-16 20:21:00,60.1,52.1,29.65,West,259,0.0,0.0,75,0.00,,,0.00,0,WeatherCatV1.02B3,2013-05-17 03:21:00,
2013-05-16 20:26:00,60.1,52.5,29.65,West,259,0.0,1.0,76,0.00,,,0.00,0,WeatherCatV1.02B3,2013-05-17 03:26:00,
2013-05-16 20:31:00,60.1,52.5,29.65,West,259,0.0,1.0,76,0.00,,,0.00,0,WeatherCatV1.02B3,2013-05-17 03:31:00,
2013-05-16 20:36:00,59.8,52.2,29.65,West,259,0.0,0.0,76,0.00,,,0.00,0,WeatherCatV1.02B3,2013-05-17 03:36:00,
2013-05-16 20:41:00,59.4,51.8,29.65,West,259,0.0,0.0,76,0.00,,,0.00,0,WeatherCatV1.02B3,2013-05-17 03:41:00,
2013-05-16 20:46:00,58.9,51.7,29.65,West,259,0.0,0.0,77,0.00,,,0.00,0,WeatherCatV1.02B3,2013-05-17 03:46:00,
2013-05-16 20:51:00,58.8,52.0,29.65,West,259,0.0,0.0,78,0.00,,,0.00,0,WeatherCatV1.02B3,2013-05-17 03:51:00,
2013-05-16 20:56:00,58.7,51.9,29.65,West,259,0.0,0.0,78,0.00,,,0.00,0,WeatherCatV1.02B3,2013-05-17 03:56:00,
2013-05-16 21:01:00,58.9,52.4,29.65,West,259,0.0,0.0,79,0.00,,,0.00,0,WeatherCatV1.02B3,2013-05-17 04:01:00,
2013-05-16 21:06:00,58.6,51.4,29.65,West,259,0.0,0.0,77,0.00,,,0.00,0,WeatherCatV1.02B3,2013-05-17 04:06:00,
2013-05-16 21:11:00,57.9,51.4,29.65,West,259,0.0,0.0,79,0.00,,,0.00,0,WeatherCatV1.02B3,2013-05-17 04:11:00,
2013-05-16 21:16:00,57.4,51.3,29.65,West,259,0.0,0.0,80,0.00,,,0.00,0,WeatherCatV1.02B3,2013-05-17 04:16:00,
2013-05-16 21:21:00,57.1,51.0,29.65,West,259,0.0,0.0,80,0.00,,,0.00,0,WeatherCatV1.02B3,2013-05-17 04:21:00,
2013-05-16 21:26:00,57.0,51.2,29.65,West,259,0.0,0.0,81,0.00,,,0.00,0,WeatherCatV1.02B3,2013-05-17 04:26:00,
2013-05-16 21:31:00,56.7,50.9,29.65,West,259,0.0,0.0,81,0.00,,,0.00,0,WeatherCatV1.02B3,2013-05-17 04:31:00,
2013-05-16 21:36:00,56.8,51.4,29.65,West,259,0.0,0.0,82,0.00,,,0.00,0,WeatherCatV1.02B3,2013-05-17 04:36:00,
2013-05-16 21:41:00,56.3,50.2,29.65,West,259,0.0,0.0,80,0.00,,,0.00,0,WeatherCatV1.02B3,2013-05-17 04:41:00,
2013-05-16 21:46:00,56.1,50.7,29.65,West,259,0.0,0.0,82,0.00,,,0.00,0,WeatherCatV1.02B3,2013-05-17 04:46:00,
2013-05-16 21:51:00,55.9,50.5,29.65,West,259,0.0,0.0,82,0.00,,,0.00,0,WeatherCatV1.02B3,2013-05-17 04:51:00,
2013-05-16 21:56:00,55.7,50.6,29.65,West,259,0.0,0.0,83,0.00,,,0.00,0,WeatherCatV1.02B3,2013-05-17 04:56:00,
2013-05-16 22:01:00,55.8,50.7,29.65,West,259,0.0,0.0,83,0.00,,,0.00,0,WeatherCatV1.02B3,2013-05-17 05:01:00,
2013-05-16 22:06:00,55.9,50.8,29.65,West,259,0.0,1.0,83,0.00,,,0.00,0,WeatherCatV1.02B3,2013-05-17 05:06:00,
2013-05-16 22:11:00,56.0,50.9,29.65,West,259,0.0,0.0,83,0.00,,,0.00,0,WeatherCatV1.02B3,2013-05-17 05:11:00,
2013-05-16 22:16:00,55.6,50.5,29.65,West,259,0.0,0.0,83,0.00,,,0.00,0,WeatherCatV1.02B3,2013-05-17 05:16:00,
2013-05-16 22:21:00,55.6,50.8,29.65,West,259,0.0,0.0,84,0.00,,,0.00,0,WeatherCatV1.02B3,2013-05-17 05:21:00,
2013-05-16 22:26:00,55.4,50.0,29.65,West,259,0.0,0.0,82,0.00,,,0.00,0,WeatherCatV1.02B3,2013-05-17 05:26:00,
2013-05-16 22:31:00,54.9,50.2,29.65,West,259,0.0,1.0,84,0.00,,,0.00,0,WeatherCatV1.02B3,2013-05-17 05:31:00,
2013-05-16 22:36:00,55.1,50.7,29.65,West,259,0.0,1.0,85,0.00,,,0.00,0,WeatherCatV1.02B3,2013-05-17 05:36:00,
2013-05-16 22:41:00,55.8,51.4,29.65,NNW,337,0.0,1.0,85,0.00,,,0.00,0,WeatherCatV1.02B3,2013-05-17 05:41:00,
2013-05-16 22:46:00,56.1,51.0,29.65,NNW,337,0.0,1.0,83,0.00,,,0.00,0,WeatherCatV1.02B3,2013-05-17 05:46:00,
2013-05-16 22:51:00,56.0,50.9,29.65,NNW,337,0.0,0.0,83,0.00,,,0.00,0,WeatherCatV1.02B3,2013-05-17 05:51:00,
2013-05-16 22:56:00,55.9,51.1,29.65,NNW,348,1.0,2.0,84,0.00,,,0.00,0,WeatherCatV1.02B3,2013-05-17 05:56:00,
2013-05-16 23:01:00,56.0,51.2,29.65,NNW,348,0.0,1.0,84,0.00,,,0.00,0,WeatherCatV1.02B3,2013-05-17 06:01:00,
2013-05-16 23:06:00,56.2,51.4,29.65,NNW,347,1.0,2.0,84,0.00,,,0.00,0,WeatherCatV1.02B3,2013-05-17 06:06:00,
2013-05-16 23:11:00,56.3,51.2,29.65,NNW,347,0.0,0.0,83,0.00,,,0.00,0,WeatherCatV1.02B3,2013-05-17 06:11:00,
2013-05-16 23:16:00,56.1,51.0,29.65,NNW,347,0.0,0.0,83,0.00,,,0.00,0,WeatherCatV1.02B3,2013-05-17 06:16:00,
2013-05-16 23:21:00,56.0,50.9,29.65,NNW,347,0.0,0.0,83,0.00,,,0.00,0,WeatherCatV1.02B3,2013-05-17 06:21:00,
2013-05-16 23:26:00,55.5,50.4,29.65,NNW,347,0.0,0.0,83,0.00,,,0.00,0,WeatherCatV1.02B3,2013-05-17 06:26:00,
2013-05-16 23:31:00,55.4,50.6,29.65,NNW,347,0.0,0.0,84,0.00,,,0.00,0,WeatherCatV1.02B3,2013-05-17 06:31:00,
2013-05-16 23:36:00,55.4,50.6,29.65,NNW,347,0.0,0.0,84,0.00,,,0.00,0,WeatherCatV1.02B3,2013-05-17 06:36:00,
2013-05-16 23:41:00,55.5,50.7,29.65,NNW,347,0.0,0.0,84,0.00,,,0.00,0,WeatherCatV1.02B3,2013-05-17 06:41:00,
2013-05-16 23:46:00,55.5,50.7,29.65,NNW,347,0.0,0.0,84,0.00,,,0.00,0,WeatherCatV1.02B3,2013-05-17 06:46:00,
2013-05-16 23:51:00,55.5,50.7,29.65,NNW,347,0.0,0.0,84,0.00,,,0.00,0,WeatherCatV1.02B3,2013-05-17 06:51:00,
2013-05-16 23:56:00,55.4,50.6,29.65,NNW,347,0.0,0.0,84,0.00,,,0.00,0,WeatherCatV1.02B3,2013-05-17 06:56:00,